Year,Month,Day,Hour,Minute,Value (Times are PST for temperature in C)
2016,10,23,08,17,9.70
2016,10,23,08,18,9.70
2016,10,23,08,19,9.70
2016,10,23,08,20,9.70
2016,10,23,08,21,9.70
2016,10,23,08,22,9.70
2016,10,23,08,23,9.70
2016,10,23,08,24,9.70
2016,10,23,08,25,9.70
2016,10,23,08,26,9.70
2016,10,23,08,27,9.70
2016,10,23,08,28,9.70
2016,10,23,08,29,9.60
2016,10,23,08,30,9.60
2016,10,23,08,31,9.60
2016,10,23,08,32,9.60
2016,10,23,08,33,9.70
2016,10,23,08,34,9.70
2016,10,23,08,35,9.70
2016,10,23,08,36,9.70
2016,10,23,08,37,9.70
2016,10,23,08,38,9.70
2016,10,23,08,39,9.70
2016,10,23,08,40,9.70
2016,10,23,08,41,9.70
2016,10,23,08,42,9.70
2016,10,23,08,43,9.70
2016,10,23,08,44,9.70
2016,10,23,08,45,9.80
2016,10,23,08,46,9.80
2016,10,23,08,47,9.80
2016,10,23,08,48,9.80
2016,10,23,08,49,9.80
2016,10,23,08,50,9.80
2016,10,23,08,51,9.90
2016,10,23,08,52,9.90
2016,10,23,08,53,9.90
2016,10,23,08,54,9.90
2016,10,23,08,55,9.90
2016,10,23,08,56,9.90
2016,10,23,08,57,10.00
2016,10,23,08,58,10.10
2016,10,23,08,59,10.10
2016,10,23,09,00,10.10
2016,10,23,09,01,10.20
2016,10,23,09,02,10.20
2016,10,23,09,03,10.30
2016,10,23,09,04,10.30
2016,10,23,09,05,10.40
2016,10,23,09,06,10.40
2016,10,23,09,07,10.40
2016,10,23,09,08,10.40
2016,10,23,09,09,10.40
2016,10,23,09,10,10.50
2016,10,23,09,11,10.60
2016,10,23,09,12,10.60
2016,10,23,09,13,10.60
2016,10,23,09,14,10.60
2016,10,23,09,15,10.60
2016,10,23,09,16,10.70
2016,10,23,09,17,10.70
2016,10,23,09,18,10.70
2016,10,23,09,19,10.80
2016,10,23,09,20,10.80
2016,10,23,09,21,10.90
2016,10,23,09,22,10.90
2016,10,23,09,23,11.00
2016,10,23,09,24,11.10
2016,10,23,09,25,11.20
2016,10,23,09,26,11.30
2016,10,23,09,27,11.30
2016,10,23,09,28,11.40
2016,10,23,09,29,11.40
2016,10,23,09,30,11.40
2016,10,23,09,31,11.60
2016,10,23,09,32,11.60
2016,10,23,09,33,11.70
2016,10,23,09,34,11.80
2016,10,23,09,35,11.80
2016,10,23,09,36,11.90
2016,10,23,09,37,12.00
2016,10,23,09,38,12.10
2016,10,23,09,39,12.10
2016,10,23,09,40,12.20
2016,10,23,09,41,12.20
2016,10,23,09,42,12.20
2016,10,23,09,43,12.10
2016,10,23,09,44,12.10
2016,10,23,09,45,12.20
2016,10,23,09,46,12.20
2016,10,23,09,47,12.10
2016,10,23,09,48,12.20
2016,10,23,09,49,12.20
2016,10,23,09,50,12.20
2016,10,23,09,51,12.20
2016,10,23,09,52,12.10
2016,10,23,09,53,12.10
2016,10,23,09,54,12.20
2016,10,23,09,55,12.20
2016,10,23,09,56,12.10
2016,10,23,09,57,12.10
2016,10,23,09,58,12.10
2016,10,23,09,59,12.20
2016,10,23,10,00,12.10
2016,10,23,10,01,12.10
2016,10,23,10,02,12.10
2016,10,23,10,03,12.10
2016,10,23,10,04,12.10
2016,10,23,10,05,12.20
2016,10,23,10,06,12.20
2016,10,23,10,07,12.20
2016,10,23,10,08,12.20
2016,10,23,10,09,12.20
2016,10,23,10,10,12.10
2016,10,23,10,11,12.10
2016,10,23,10,12,12.10
2016,10,23,10,13,12.10
2016,10,23,10,14,12.10
2016,10,23,10,15,12.10
2016,10,23,10,16,12.20
2016,10,23,10,17,12.20
2016,10,23,10,18,12.20
2016,10,23,10,19,12.30
2016,10,23,10,20,12.30
2016,10,23,10,21,12.30
2016,10,23,10,22,12.40
2016,10,23,10,23,12.40
2016,10,23,10,24,12.40
2016,10,23,10,25,12.50
2016,10,23,10,26,12.50
2016,10,23,10,27,12.60
2016,10,23,10,28,12.60
2016,10,23,10,29,12.60
2016,10,23,10,30,12.60
2016,10,23,10,31,12.60
2016,10,23,10,32,12.70
2016,10,23,10,33,12.80
2016,10,23,10,34,12.80
2016,10,23,10,35,12.80
2016,10,23,10,36,12.80
2016,10,23,10,37,12.80
2016,10,23,10,38,12.80
2016,10,23,10,39,12.80
2016,10,23,10,40,12.80
2016,10,23,10,41,12.80
2016,10,23,10,42,12.80
2016,10,23,10,43,12.80
2016,10,23,10,44,12.80
2016,10,23,10,45,12.70
2016,10,23,10,46,12.60
2016,10,23,10,47,12.60
2016,10,23,10,48,12.50
2016,10,23,10,49,12.50
2016,10,23,10,50,12.50
2016,10,23,10,51,12.50
2016,10,23,10,52,12.60
2016,10,23,10,53,12.70
2016,10,23,10,54,12.60
2016,10,23,10,55,12.60
2016,10,23,10,56,12.60
2016,10,23,10,57,12.50
2016,10,23,10,58,12.50
2016,10,23,10,59,12.50
2016,10,23,11,00,12.60
2016,10,23,11,01,12.70
2016,10,23,11,02,12.70
2016,10,23,11,03,12.80
2016,10,23,11,04,12.70
2016,10,23,11,05,12.60
2016,10,23,11,06,12.50
2016,10,23,11,07,12.50
2016,10,23,11,08,12.40
2016,10,23,11,09,12.40
2016,10,23,11,10,12.40
2016,10,23,11,11,12.40
2016,10,23,11,12,12.30
2016,10,23,11,13,12.30
2016,10,23,11,14,12.30
2016,10,23,11,15,12.30
2016,10,23,11,16,12.30
2016,10,23,11,17,12.30
2016,10,23,11,18,12.40
2016,10,23,11,19,12.40
2016,10,23,11,20,12.40
2016,10,23,11,21,12.30
2016,10,23,11,22,12.40
2016,10,23,11,23,12.40
2016,10,23,11,24,12.40
2016,10,23,11,25,12.40
2016,10,23,11,26,12.40
2016,10,23,11,27,12.40
2016,10,23,11,28,12.40
2016,10,23,11,29,12.30
2016,10,23,11,30,12.30
2016,10,23,11,31,12.30
2016,10,23,11,32,12.30
2016,10,23,11,33,12.30
2016,10,23,11,34,12.30
2016,10,23,11,35,12.30
2016,10,23,11,36,12.30
2016,10,23,11,37,12.30
2016,10,23,11,38,12.40
2016,10,23,11,39,12.40
2016,10,23,11,40,12.30
2016,10,23,11,41,12.30
2016,10,23,11,42,12.40
2016,10,23,11,43,12.40
2016,10,23,11,44,12.30
2016,10,23,11,45,12.30
2016,10,23,11,46,12.40
2016,10,23,11,47,12.50
2016,10,23,11,48,12.50
2016,10,23,11,49,12.50
2016,10,23,11,50,12.50
2016,10,23,11,51,12.40
2016,10,23,11,52,12.40
2016,10,23,11,53,12.40
2016,10,23,11,54,12.40
2016,10,23,11,55,12.40
2016,10,23,11,56,12.50
2016,10,23,11,57,12.50
2016,10,23,11,58,12.50
2016,10,23,11,59,12.50
2016,10,23,12,00,12.60
2016,10,23,12,01,12.70
2016,10,23,12,02,12.70
2016,10,23,12,03,12.70
2016,10,23,12,04,12.70
2016,10,23,12,05,12.70
2016,10,23,12,06,12.70
2016,10,23,12,07,12.70
2016,10,23,12,08,12.80
2016,10,23,12,09,12.80
2016,10,23,12,10,12.80
2016,10,23,12,11,12.80
2016,10,23,12,12,12.80
2016,10,23,12,13,12.90
2016,10,23,12,14,12.90
2016,10,23,12,15,12.90
2016,10,23,12,16,12.80
2016,10,23,12,17,12.80
2016,10,23,12,18,12.80
2016,10,23,12,19,12.80
2016,10,23,12,20,12.80
2016,10,23,12,21,12.90
2016,10,23,12,22,12.90
2016,10,23,12,23,13.00
2016,10,23,12,24,13.00
2016,10,23,12,25,13.00
2016,10,23,12,26,13.00
2016,10,23,12,27,13.00
2016,10,23,12,28,13.00
2016,10,23,12,29,12.90
2016,10,23,12,30,12.90
2016,10,23,12,31,12.90
2016,10,23,12,32,12.80
2016,10,23,12,33,12.80
2016,10,23,12,34,12.80
2016,10,23,12,35,12.80
2016,10,23,12,36,12.80
2016,10,23,12,37,12.80
2016,10,23,12,38,12.80
2016,10,23,12,39,12.80
2016,10,23,12,40,12.80
2016,10,23,12,41,12.80
2016,10,23,12,42,12.80
2016,10,23,12,43,12.80
2016,10,23,12,44,12.80
2016,10,23,12,45,12.90
2016,10,23,12,46,12.90
2016,10,23,12,47,12.90
2016,10,23,12,48,12.90
2016,10,23,12,49,13.00
2016,10,23,12,50,13.00
2016,10,23,12,51,13.10
2016,10,23,12,52,13.10
2016,10,23,12,53,13.20
2016,10,23,12,54,13.20
2016,10,23,12,55,13.30
2016,10,23,12,56,13.30
2016,10,23,12,57,13.30
2016,10,23,12,58,13.40
2016,10,23,12,59,13.40
2016,10,23,13,00,13.30
2016,10,23,13,01,13.30
2016,10,23,13,02,13.40
2016,10,23,13,03,13.40
2016,10,23,13,04,13.40
2016,10,23,13,05,13.50
2016,10,23,13,06,13.50
2016,10,23,13,07,13.50
2016,10,23,13,08,13.50
2016,10,23,13,09,13.50
2016,10,23,13,10,13.50
2016,10,23,13,11,13.50
2016,10,23,13,12,13.50
2016,10,23,13,13,13.50
2016,10,23,13,14,13.50
2016,10,23,13,15,13.50
2016,10,23,13,16,13.50
2016,10,23,13,17,13.50
2016,10,23,13,18,13.50
2016,10,23,13,19,13.40
2016,10,23,13,20,13.50
2016,10,23,13,21,13.50
2016,10,23,13,22,13.50
2016,10,23,13,23,13.50
2016,10,23,13,24,13.50
2016,10,23,13,25,13.40
2016,10,23,13,26,13.40
2016,10,23,13,27,13.40
2016,10,23,13,28,13.40
2016,10,23,13,29,13.40
2016,10,23,13,30,13.40
2016,10,23,13,31,13.50
2016,10,23,13,32,13.50
2016,10,23,13,33,13.60
2016,10,23,13,34,13.60
2016,10,23,13,35,13.60
2016,10,23,13,36,13.60
2016,10,23,13,37,13.60
2016,10,23,13,38,13.60
2016,10,23,13,39,13.60
2016,10,23,13,40,13.60
2016,10,23,13,41,13.60
2016,10,23,13,42,13.60
2016,10,23,13,43,13.60
2016,10,23,13,44,13.60
2016,10,23,13,45,13.50
2016,10,23,13,46,13.50
2016,10,23,13,47,13.50
2016,10,23,13,48,13.40
2016,10,23,13,49,13.40
2016,10,23,13,50,13.40
2016,10,23,13,51,13.30
2016,10,23,13,52,13.20
2016,10,23,13,53,13.20
2016,10,23,13,54,13.10
2016,10,23,13,55,13.10
2016,10,23,13,56,13.10
2016,10,23,13,57,13.10
2016,10,23,13,58,13.10
2016,10,23,13,59,13.10
2016,10,23,14,00,13.10
2016,10,23,14,01,13.10
2016,10,23,14,02,13.10
2016,10,23,14,03,13.10
2016,10,23,14,04,13.10
2016,10,23,14,05,13.00
2016,10,23,14,06,13.00
2016,10,23,14,07,13.00
2016,10,23,14,08,13.00
2016,10,23,14,09,13.00
2016,10,23,14,10,13.00
2016,10,23,14,11,13.00
2016,10,23,14,12,13.00
2016,10,23,14,13,13.00
2016,10,23,14,14,13.00
2016,10,23,14,15,13.00
2016,10,23,14,16,13.00
2016,10,23,14,17,13.00
2016,10,23,14,18,13.00
2016,10,23,14,19,12.90
2016,10,23,14,20,13.00
2016,10,23,14,21,13.00
2016,10,23,14,22,13.00
2016,10,23,14,23,13.00
2016,10,23,14,24,13.10
2016,10,23,14,25,13.10
2016,10,23,14,26,13.10
2016,10,23,14,27,13.10
2016,10,23,14,28,13.10
2016,10,23,14,29,13.20
2016,10,23,14,30,13.20
2016,10,23,14,31,13.20
2016,10,23,14,32,13.20
2016,10,23,14,33,13.30
2016,10,23,14,34,13.30
2016,10,23,14,35,13.30
2016,10,23,14,36,13.30
2016,10,23,14,37,13.40
2016,10,23,14,38,13.40
2016,10,23,14,39,13.50
2016,10,23,14,40,13.50
2016,10,23,14,41,13.50
2016,10,23,14,42,13.50
2016,10,23,14,43,13.60
2016,10,23,14,44,13.60
2016,10,23,14,45,13.60
2016,10,23,14,46,13.60
2016,10,23,14,47,13.60
2016,10,23,14,48,13.50
2016,10,23,14,49,13.50
2016,10,23,14,50,13.50
2016,10,23,14,51,13.50
2016,10,23,14,52,13.50
2016,10,23,14,53,13.50
2016,10,23,14,54,13.60
2016,10,23,14,55,13.60
2016,10,23,14,56,13.60
2016,10,23,14,57,13.60
2016,10,23,14,58,13.60
2016,10,23,14,59,13.60
2016,10,23,15,00,13.60
2016,10,23,15,01,13.60
2016,10,23,15,02,13.60
2016,10,23,15,03,13.60
2016,10,23,15,04,13.60
2016,10,23,15,05,13.60
2016,10,23,15,06,13.50
2016,10,23,15,07,13.60
2016,10,23,15,08,13.60
2016,10,23,15,09,13.60
2016,10,23,15,10,13.60
2016,10,23,15,11,13.60
2016,10,23,15,12,13.60
2016,10,23,15,13,13.70
2016,10,23,15,14,13.70
2016,10,23,15,15,13.70
2016,10,23,15,16,13.70
2016,10,23,15,17,13.70
2016,10,23,15,18,13.70
2016,10,23,15,19,13.70
2016,10,23,15,20,13.70
2016,10,23,15,21,13.70
2016,10,23,15,22,13.70
2016,10,23,15,23,13.70
2016,10,23,15,24,13.70
2016,10,23,15,25,13.70
2016,10,23,15,26,13.70
2016,10,23,15,27,13.70
2016,10,23,15,28,13.70
2016,10,23,15,29,13.70
2016,10,23,15,30,13.70
2016,10,23,15,31,13.70
2016,10,23,15,32,13.70
2016,10,23,15,33,13.60
2016,10,23,15,34,13.60
2016,10,23,15,35,13.60
2016,10,23,15,36,13.60
2016,10,23,15,37,13.60
2016,10,23,15,38,13.60
2016,10,23,15,39,13.60
2016,10,23,15,40,13.60
2016,10,23,15,41,13.60
2016,10,23,15,42,13.60
2016,10,23,15,43,13.60
2016,10,23,15,44,13.60
2016,10,23,15,45,13.60
2016,10,23,15,46,13.60
2016,10,23,15,47,13.70
2016,10,23,15,48,13.70
2016,10,23,15,49,13.70
2016,10,23,15,50,13.70
2016,10,23,15,51,13.70
2016,10,23,15,52,13.70
2016,10,23,15,53,13.70
2016,10,23,15,54,13.70
2016,10,23,15,55,13.70
2016,10,23,15,56,13.70
2016,10,23,15,57,13.70
2016,10,23,15,58,13.70
2016,10,23,15,59,13.70
2016,10,23,16,00,13.70
2016,10,23,16,01,13.70
2016,10,23,16,02,13.70
2016,10,23,16,03,13.70
2016,10,23,16,04,13.70
2016,10,23,16,05,13.70
2016,10,23,16,06,13.70
2016,10,23,16,07,13.70
2016,10,23,16,08,13.70
2016,10,23,16,09,13.70
2016,10,23,16,10,13.70
2016,10,23,16,11,13.70
2016,10,23,16,12,13.70
2016,10,23,16,13,13.70
2016,10,23,16,14,13.70
2016,10,23,16,15,13.70
2016,10,23,16,16,13.70
2016,10,23,16,17,13.70
2016,10,23,16,18,13.70
2016,10,23,16,19,13.70
2016,10,23,16,20,13.70
2016,10,23,16,21,13.70
2016,10,23,16,22,13.70
2016,10,23,16,23,13.60
2016,10,23,16,24,13.60
2016,10,23,16,25,13.60
2016,10,23,16,26,13.60
2016,10,23,16,27,13.60
2016,10,23,16,28,13.60
2016,10,23,16,29,13.60
2016,10,23,16,30,13.60
2016,10,23,16,31,13.60
2016,10,23,16,32,13.60
2016,10,23,16,33,13.70
2016,10,23,16,34,13.70
2016,10,23,16,35,13.70
2016,10,23,16,36,13.70
2016,10,23,16,37,13.70
2016,10,23,16,38,13.70
2016,10,23,16,39,13.70
2016,10,23,16,40,13.70
2016,10,23,16,41,13.70
2016,10,23,16,42,13.70
2016,10,23,16,43,13.70
2016,10,23,16,44,13.70
2016,10,23,16,45,13.60
2016,10,23,16,46,13.60
2016,10,23,16,47,13.60
2016,10,23,16,48,13.60
2016,10,23,16,49,13.60
2016,10,23,16,50,13.60
2016,10,23,16,51,13.60
2016,10,23,16,52,13.50
2016,10,23,16,53,13.50
2016,10,23,16,54,13.50
2016,10,23,16,55,13.50
2016,10,23,16,56,13.50
2016,10,23,16,57,13.40
2016,10,23,16,58,13.40
2016,10,23,16,59,13.40
2016,10,23,17,00,13.40
2016,10,23,17,01,13.40
2016,10,23,17,02,13.40
2016,10,23,17,03,13.40
2016,10,23,17,04,13.40
2016,10,23,17,05,13.40
2016,10,23,17,06,13.40
2016,10,23,17,07,13.40
2016,10,23,17,08,13.40
2016,10,23,17,09,13.40
2016,10,23,17,10,13.40
2016,10,23,17,11,13.40
2016,10,23,17,12,13.40
2016,10,23,17,13,13.40
2016,10,23,17,14,13.30
2016,10,23,17,15,13.30
2016,10,23,17,16,13.30
2016,10,23,17,17,13.30
2016,10,23,17,18,13.30
2016,10,23,17,19,13.30
2016,10,23,17,20,13.30
2016,10,23,17,21,13.30
2016,10,23,17,22,13.20
2016,10,23,17,23,13.20
2016,10,23,17,24,13.20
2016,10,23,17,25,13.20
2016,10,23,17,26,13.20
2016,10,23,17,27,13.20
2016,10,23,17,28,13.20
2016,10,23,17,29,13.10
2016,10,23,17,30,13.10
2016,10,23,17,31,13.10
2016,10,23,17,32,13.10
2016,10,23,17,33,13.10
2016,10,23,17,34,13.10
2016,10,23,17,35,13.10
2016,10,23,17,36,13.10
2016,10,23,17,37,13.00
2016,10,23,17,38,13.00
2016,10,23,17,39,13.00
2016,10,23,17,40,13.00
2016,10,23,17,41,13.00
2016,10,23,17,42,13.00
2016,10,23,17,43,13.00
2016,10,23,17,44,13.00
2016,10,23,17,45,12.90
2016,10,23,17,46,12.90
2016,10,23,17,47,12.90
2016,10,23,17,48,12.90
2016,10,23,17,49,12.90
2016,10,23,17,50,12.90
2016,10,23,17,51,12.80
2016,10,23,17,52,12.80
2016,10,23,17,53,12.80
2016,10,23,17,54,12.80
2016,10,23,17,55,12.80
2016,10,23,17,56,12.80
2016,10,23,17,57,12.80
2016,10,23,17,58,12.80
2016,10,23,17,59,12.80
2016,10,23,18,00,12.80
2016,10,23,18,01,12.80
2016,10,23,18,02,12.80
2016,10,23,18,03,12.80
2016,10,23,18,04,12.70
2016,10,23,18,05,12.70
2016,10,23,18,06,12.70
2016,10,23,18,07,12.70
2016,10,23,18,08,12.70
2016,10,23,18,09,12.70
2016,10,23,18,10,12.60
2016,10,23,18,11,12.60
2016,10,23,18,12,12.60
2016,10,23,18,13,12.60
2016,10,23,18,14,12.60
2016,10,23,18,15,12.60
2016,10,23,18,16,12.60
2016,10,23,18,17,12.60
2016,10,23,18,18,12.50
2016,10,23,18,19,12.50
2016,10,23,18,20,12.50
2016,10,23,18,21,12.50
2016,10,23,18,22,12.50
2016,10,23,18,23,12.50
2016,10,23,18,24,12.50
2016,10,23,18,25,12.50
2016,10,23,18,26,12.50
2016,10,23,18,27,12.50
2016,10,23,18,28,12.50
2016,10,23,18,29,12.50
2016,10,23,18,30,12.50
2016,10,23,18,31,12.50
2016,10,23,18,32,12.40
2016,10,23,18,33,12.40
2016,10,23,18,34,12.40
2016,10,23,18,35,12.40
2016,10,23,18,36,12.40
2016,10,23,18,37,12.40
2016,10,23,18,38,12.40
2016,10,23,18,39,12.40
2016,10,23,18,40,12.40
2016,10,23,18,41,12.40
2016,10,23,18,42,12.40
2016,10,23,18,43,12.40
2016,10,23,18,44,12.30
2016,10,23,18,45,12.30
2016,10,23,18,46,12.30
2016,10,23,18,47,12.30
2016,10,23,18,48,12.30
2016,10,23,18,49,12.30
2016,10,23,18,50,12.30
2016,10,23,18,51,12.30
2016,10,23,18,52,12.30
2016,10,23,18,53,12.30
2016,10,23,18,54,12.30
2016,10,23,18,55,12.30
2016,10,23,18,56,12.30
2016,10,23,18,57,12.30
2016,10,23,18,58,12.30
2016,10,23,18,59,12.30
2016,10,23,19,00,12.30
2016,10,23,19,01,12.30
2016,10,23,19,02,12.30
2016,10,23,19,03,12.30
2016,10,23,19,04,12.30
2016,10,23,19,05,12.30
2016,10,23,19,06,12.30
2016,10,23,19,07,12.30
2016,10,23,19,08,12.30
2016,10,23,19,09,12.30
2016,10,23,19,10,12.30
2016,10,23,19,11,12.20
2016,10,23,19,12,12.20
2016,10,23,19,13,12.20
2016,10,23,19,14,12.20
2016,10,23,19,15,12.20
2016,10,23,19,16,12.20
2016,10,23,19,17,12.10
2016,10,23,19,18,12.10
2016,10,23,19,19,12.10
2016,10,23,19,20,12.10
2016,10,23,19,21,12.10
2016,10,23,19,22,12.10
2016,10,23,19,23,12.00
2016,10,23,19,24,12.00
2016,10,23,19,25,12.00
2016,10,23,19,26,12.00
2016,10,23,19,27,12.00
2016,10,23,19,28,12.00
2016,10,23,19,29,12.00
2016,10,23,19,30,11.90
2016,10,23,19,31,11.90
2016,10,23,19,32,11.90
2016,10,23,19,33,11.90
2016,10,23,19,34,11.90
2016,10,23,19,35,11.90
2016,10,23,19,36,11.90
2016,10,23,19,37,11.80
2016,10,23,19,38,11.80
2016,10,23,19,39,11.80
2016,10,23,19,40,11.80
2016,10,23,19,41,11.80
2016,10,23,19,42,11.80
2016,10,23,19,43,11.80
2016,10,23,19,44,11.80
2016,10,23,19,45,11.80
2016,10,23,19,46,11.80
2016,10,23,19,47,11.80
2016,10,23,19,48,11.80
2016,10,23,19,49,11.80
2016,10,23,19,50,11.80
2016,10,23,19,51,11.80
2016,10,23,19,52,11.70
2016,10,23,19,53,11.70
2016,10,23,19,54,11.70
2016,10,23,19,55,11.70
2016,10,23,19,56,11.70
2016,10,23,19,57,11.70
2016,10,23,19,58,11.60
2016,10,23,19,59,11.60
2016,10,23,20,00,11.60
2016,10,23,20,01,11.60
2016,10,23,20,02,11.60
2016,10,23,20,03,11.60
2016,10,23,20,04,11.60
2016,10,23,20,05,11.60
2016,10,23,20,06,11.60
2016,10,23,20,07,11.60
2016,10,23,20,08,11.60
2016,10,23,20,09,11.60
2016,10,23,20,10,11.60
2016,10,23,20,11,11.60
2016,10,23,20,12,11.60
2016,10,23,20,13,11.60
2016,10,23,20,14,11.60
2016,10,23,20,15,11.60
2016,10,23,20,16,11.60
2016,10,23,20,17,11.60
2016,10,23,20,18,11.60
2016,10,23,20,19,11.60
2016,10,23,20,20,11.50
2016,10,23,20,21,11.40
2016,10,23,20,22,11.40
2016,10,23,20,23,11.40
2016,10,23,20,24,11.40
2016,10,23,20,25,11.40
2016,10,23,20,26,11.40
2016,10,23,20,27,11.40
2016,10,23,20,28,11.40
2016,10,23,20,29,11.40
2016,10,23,20,30,11.40
2016,10,23,20,31,11.40
2016,10,23,20,32,11.40
2016,10,23,20,33,11.40
2016,10,23,20,34,11.40
2016,10,23,20,35,11.40
2016,10,23,20,36,11.40
2016,10,23,20,37,11.40
2016,10,23,20,38,11.40
2016,10,23,20,39,11.40
2016,10,23,20,40,11.40
2016,10,23,20,41,11.40
2016,10,23,20,42,11.30
2016,10,23,20,43,11.30
2016,10,23,20,44,11.30
2016,10,23,20,45,11.30
2016,10,23,20,46,11.30
2016,10,23,20,47,11.30
2016,10,23,20,48,11.30
2016,10,23,20,49,11.30
2016,10,23,20,50,11.30
2016,10,23,20,51,11.30
2016,10,23,20,52,11.20
2016,10,23,20,53,11.20
2016,10,23,20,54,11.20
2016,10,23,20,55,11.20
2016,10,23,20,56,11.20
2016,10,23,20,57,11.20
2016,10,23,20,58,11.20
2016,10,23,20,59,11.20
2016,10,23,21,00,11.20
2016,10,23,21,01,11.20
2016,10,23,21,02,11.20
2016,10,23,21,03,11.20
2016,10,23,21,04,11.20
2016,10,23,21,05,11.10
2016,10,23,21,06,11.10
2016,10,23,21,07,11.10
2016,10,23,21,08,11.10
2016,10,23,21,09,11.10
2016,10,23,21,10,11.20
2016,10,23,21,11,11.20
2016,10,23,21,12,11.20
2016,10,23,21,13,11.20
2016,10,23,21,14,11.20
2016,10,23,21,15,11.20
2016,10,23,21,16,11.20
2016,10,23,21,17,11.20
2016,10,23,21,18,11.20
2016,10,23,21,19,11.20
2016,10,23,21,20,11.20
2016,10,23,21,21,11.20
2016,10,23,21,22,11.20
2016,10,23,21,23,11.20
2016,10,23,21,24,11.20
2016,10,23,21,25,11.20
2016,10,23,21,26,11.20
2016,10,23,21,27,11.20
2016,10,23,21,28,11.20
2016,10,23,21,29,11.20
2016,10,23,21,30,11.20
2016,10,23,21,31,11.20
2016,10,23,21,32,11.20
2016,10,23,21,33,11.20
2016,10,23,21,34,11.20
2016,10,23,21,35,11.20
2016,10,23,21,36,11.20
2016,10,23,21,37,11.20
2016,10,23,21,38,11.20
2016,10,23,21,39,11.20
2016,10,23,21,40,11.20
2016,10,23,21,41,11.20
2016,10,23,21,42,11.30
2016,10,23,21,43,11.30
2016,10,23,21,44,11.30
2016,10,23,21,45,11.30
2016,10,23,21,46,11.30
2016,10,23,21,47,11.30
2016,10,23,21,48,11.30
2016,10,23,21,49,11.20
2016,10,23,21,50,11.20
2016,10,23,21,51,11.20
2016,10,23,21,52,11.20
2016,10,23,21,53,11.20
2016,10,23,21,54,11.20
2016,10,23,21,55,11.20
2016,10,23,21,56,11.20
2016,10,23,21,57,11.20
2016,10,23,21,58,11.20
2016,10,23,21,59,11.20
2016,10,23,22,00,11.20
2016,10,23,22,01,11.20
2016,10,23,22,02,11.20
2016,10,23,22,03,11.30
2016,10,23,22,04,11.30
2016,10,23,22,05,11.30
2016,10,23,22,06,11.30
2016,10,23,22,07,11.30
2016,10,23,22,08,11.30
2016,10,23,22,09,11.30
2016,10,23,22,10,11.30
2016,10,23,22,11,11.30
2016,10,23,22,12,11.30
2016,10,23,22,13,11.30
2016,10,23,22,14,11.30
2016,10,23,22,15,11.20
2016,10,23,22,16,11.20
2016,10,23,22,17,11.20
2016,10,23,22,18,11.20
2016,10,23,22,19,11.20
2016,10,23,22,20,11.20
2016,10,23,22,21,11.20
2016,10,23,22,22,11.20
2016,10,23,22,23,11.20
2016,10,23,22,24,11.20
2016,10,23,22,25,11.30
2016,10,23,22,26,11.30
2016,10,23,22,27,11.30
2016,10,23,22,28,11.20
2016,10,23,22,29,11.20
2016,10,23,22,30,11.20
2016,10,23,22,31,11.20
2016,10,23,22,32,11.30
2016,10,23,22,33,11.30
2016,10,23,22,34,11.30
2016,10,23,22,35,11.30
2016,10,23,22,36,11.30
2016,10,23,22,37,11.30
2016,10,23,22,38,11.30
2016,10,23,22,39,11.30
2016,10,23,22,40,11.30
2016,10,23,22,41,11.30
2016,10,23,22,42,11.30
2016,10,23,22,43,11.30
2016,10,23,22,44,11.30
2016,10,23,22,45,11.30
2016,10,23,22,46,11.30
2016,10,23,22,47,11.40
2016,10,23,22,48,11.40
2016,10,23,22,49,11.40
2016,10,23,22,50,11.40
2016,10,23,22,51,11.40
2016,10,23,22,52,11.40
2016,10,23,22,53,11.40
2016,10,23,22,54,11.40
2016,10,23,22,55,11.40
2016,10,23,22,56,11.40
2016,10,23,22,57,11.40
2016,10,23,22,58,11.40
2016,10,23,22,59,11.40
2016,10,23,23,00,11.40
2016,10,23,23,01,11.40
2016,10,23,23,02,11.40
2016,10,23,23,03,11.40
2016,10,23,23,04,11.40
2016,10,23,23,05,11.40
2016,10,23,23,06,11.40
2016,10,23,23,07,11.40
2016,10,23,23,08,11.40
2016,10,23,23,09,11.40
2016,10,23,23,10,11.40
2016,10,23,23,11,11.40
2016,10,23,23,12,11.40
2016,10,23,23,13,11.40
2016,10,23,23,14,11.40
2016,10,23,23,15,11.40
2016,10,23,23,16,11.40
2016,10,23,23,17,11.40
2016,10,23,23,18,11.40
2016,10,23,23,19,11.40
2016,10,23,23,20,11.40
2016,10,23,23,21,11.30
2016,10,23,23,22,11.30
2016,10,23,23,23,11.30
2016,10,23,23,24,11.30
2016,10,23,23,25,11.30
2016,10,23,23,26,11.30
2016,10,23,23,27,11.30
2016,10,23,23,28,11.30
2016,10,23,23,29,11.20
2016,10,23,23,30,11.20
2016,10,23,23,31,11.20
2016,10,23,23,32,11.20
2016,10,23,23,33,11.20
2016,10,23,23,34,11.20
2016,10,23,23,35,11.20
2016,10,23,23,36,11.20
2016,10,23,23,37,11.20
2016,10,23,23,38,11.20
2016,10,23,23,39,11.20
2016,10,23,23,40,11.20
2016,10,23,23,41,11.20
2016,10,23,23,42,11.10
2016,10,23,23,43,11.10
2016,10,23,23,44,11.10
2016,10,23,23,45,11.10
2016,10,23,23,46,11.10
2016,10,23,23,47,11.10
2016,10,23,23,48,11.10
2016,10,23,23,49,11.10
2016,10,23,23,50,11.10
2016,10,23,23,51,11.10
2016,10,23,23,52,11.10
2016,10,23,23,53,11.10
2016,10,23,23,54,11.10
2016,10,23,23,55,11.10
2016,10,23,23,56,11.10
2016,10,23,23,57,11.10
2016,10,23,23,58,11.10
2016,10,23,23,59,11.10
